| time (UTC) | temp C | wind direction | speed KPH | gust KPH | rain 1hr cm | rain 24hr cm | rain mn cm | humidity % | barometer mb |
| 20260506100036 | 11 | 306 | 1.6 | 8.0 | 0.00 | 0.00 | 0.00 | 32 | 1011.0 |
| 20260506094533 | 10 | 281 | 0.0 | 14.5 | 0.00 | 0.00 | 0.00 | 33 | 1010.9 |
| 20260506093038 | 10 | 319 | 3.2 | 9.7 | 0.00 | 0.00 | 0.00 | 35 | 1010.8 |
| 20260506091531 | 9 | 286 | 1.6 | 12.9 | 0.00 | 0.00 | 0.00 | 39 | 1010.8 |
| 20260506090029 | 8 | 326 | 0.0 | 6.4 | 0.00 | 0.00 | 0.00 | 43 | 1010.8 |
| 20260506084535 | 10 | 307 | 0.0 | 12.9 | 0.00 | 0.00 | 0.00 | 41 | 1010.8 |
| 20260506083026 | 8 | 302 | 1.6 | 16.1 | 0.00 | 0.00 | 0.00 | 42 | 1010.7 |
| 20260506081524 | 9 | 294 | 1.6 | 9.7 | 0.00 | 0.00 | 0.00 | 41 | 1010.6 |
| 20260506073018 | 8 | 270 | 0.0 | 6.4 | 0.00 | 0.00 | 0.00 | 46 | 1010.4 |
| 20260506071516 | 8 | 263 | 0.0 | 11.3 | 0.00 | 0.00 | 0.00 | 48 | 1010.2 |
| 20260506061505 | 7 | 254 | 0.0 | 3.2 | 0.00 | 0.00 | 0.00 | 59 | 1009.9 |
| 20260506044549 | 3 | 267 | 0.0 | 4.8 | 0.00 | 0.00 | 0.00 | 86 | 1009.1 |
| 20260506043040 | 1 | 266 | 0.0 | 4.8 | 0.00 | 0.00 | 0.00 | 96 | 1009.1 |
| 20260506041547 | -1 | 211 | 0.0 | 0.0 | 0.00 | 0.00 | 0.00 | 95 | 1008.8 |
| 20260506040038 | -2 | 211 | 0.0 | 0.0 | 0.00 | 0.00 | 0.00 | 94 | 1008.8 |
| 20260506034532 | -2 | 211 | 0.0 | 0.0 | 0.00 | 0.00 | 0.00 | 94 | 1008.6 |
| 20260506033028 | -3 | 211 | 0.0 | 0.0 | 0.00 | 0.00 | 0.00 | 94 | 1008.5 |
| 20260506031526 | -3 | 211 | 0.0 | 0.0 | 0.00 | 0.00 | 0.00 | 94 | 1008.2 |
| 20260506030024 | -4 | 211 | 0.0 | 0.0 | 0.00 | 0.00 | 0.00 | 93 | 1008.1 |
| 20260506024526 | -4 | 211 | 0.0 | 0.0 | 0.00 | 0.00 | 0.00 | 93 | 1008.0 |
| 20260506023022 | -4 | 211 | 0.0 | 0.0 | 0.00 | 0.00 | 0.00 | 93 | 1007.9 |
| 20260506021520 | -4 | 211 | 0.0 | 0.0 | 0.00 | 0.00 | 0.00 | 93 | 1007.9 |
| 20260506020019 | -4 | 211 | 0.0 | 0.0 | 0.00 | 0.00 | 0.00 | 92 | 1007.8 |
| 20260506014518 | -4 | 211 | 0.0 | 0.0 | 0.00 | 0.00 | 0.00 | 92 | 1007.7 |
| 20260506013016 | -3 | 211 | 0.0 | 0.0 | 0.00 | 0.00 | 0.00 | 92 | 1007.6 |
| 20260506011532 | -3 | 211 | 0.0 | 0.0 | 0.00 | 0.00 | 0.00 | 92 | 1007.4 |
| 20260506010014 | -3 | 211 | 0.0 | 0.0 | 0.00 | 0.00 | 0.00 | 91 | 1007.3 |
| 20260506004525 | -3 | 211 | 0.0 | 0.0 | 0.00 | 0.00 | 0.00 | 92 | 1007.1 |
| 20260506003010 | -3 | 211 | 0.0 | 0.0 | 0.00 | 0.00 | 0.00 | 91 | 1007.0 |
| 20260506001507 | -3 | 211 | 0.0 | 0.0 | 0.00 | 0.00 | 0.00 | 91 | 1006.9 |
| 20260506000005 | -3 | 211 | 0.0 | 0.0 | 0.00 | 0.00 | 0.00 | 91 | 1006.8 |
| 20260505234503 | -3 | 211 | 0.0 | 0.0 | 0.00 | 0.00 | 0.00 | 91 | 1006.7 |
| 20260505233002 | -3 | 211 | 0.0 | 0.0 | 0.00 | 0.00 | 0.00 | 89 | 1006.6 |
| 20260505231600 | -3 | 211 | 0.0 | 0.0 | 0.00 | 0.00 | 0.00 | 90 | 1006.6 |
| 20260505224558 | -2 | 211 | 0.0 | 0.0 | 0.00 | 0.00 | 0.00 | 88 | 1006.6 |
| 20260505223057 | -2 | 211 | 0.0 | 0.0 | 0.00 | 0.00 | 0.00 | 88 | 1006.5 |
| 20260505221601 | -2 | 211 | 0.0 | 0.0 | 0.00 | 0.00 | 0.00 | 88 | 1006.5 |
| 20260505220100 | -2 | 211 | 0.0 | 0.0 | 0.00 | 0.00 | 0.00 | 87 | 1006.4 |
| 20260505214553 | -2 | 211 | 0.0 | 0.0 | 0.00 | 0.00 | 0.00 | 87 | 1006.4 |
| 20260505213049 | -1 | 211 | 0.0 | 0.0 | 0.00 | 0.00 | 0.00 | 85 | 1006.3 |
| 20260505211545 | -1 | 211 | 0.0 | 0.0 | 0.00 | 0.00 | 0.00 | 84 | 1006.3 |
| 20260505210049 | -1 | 211 | 0.0 | 0.0 | 0.00 | 0.00 | 0.00 | 84 | 1006.2 |
| 20260505204551 | -1 | 211 | 0.0 | 0.0 | 0.00 | 0.03 | 0.00 | 81 | 1006.1 |
| 20260505203036 | 0 | 211 | 0.0 | 0.0 | 0.00 | 0.03 | 0.00 | 78 | 1005.9 |
| 20260505201536 | 0 | 211 | 0.0 | 0.0 | 0.00 | 0.03 | 0.00 | 77 | 1005.9 |
| 20260505200030 | 1 | 211 | 0.0 | 0.0 | 0.00 | 0.03 | 0.00 | 75 | 1005.7 |
| 20260505194526 | 2 | 211 | 0.0 | 0.0 | 0.00 | 0.05 | 0.00 | 71 | 1005.6 |
| 20260505193032 | 3 | 211 | 0.0 | 0.0 | 0.00 | 0.05 | 0.00 | 69 | 1005.5 |
| 20260505191522 | 4 | 211 | 0.0 | 0.0 | 0.00 | 0.05 | 0.00 | 67 | 1005.4 |
| 20260505190014 | 4 | 211 | 0.0 | 0.0 | 0.00 | 0.05 | 0.00 | 64 | 1005.4 |
| 20260505184512 | 5 | 259 | 0.0 | 4.8 | 0.00 | 0.05 | 0.00 | 63 | 1005.3 |
| 20260505183017 | 5 | 259 | 1.6 | 6.4 | 0.00 | 0.05 | 0.00 | 61 | 1005.0 |
| 20260505181510 | 6 | 259 | 1.6 | 11.3 | 0.00 | 0.05 | 0.00 | 61 | 1004.9 |
| 20260505180007 | 6 | 261 | 1.6 | 8.0 | 0.00 | 0.05 | 0.00 | 59 | 1004.6 |
| 20260505174505 | 6 | 300 | 0.0 | 9.7 | 0.00 | 0.05 | 0.00 | 58 | 1004.5 |
| 20260505173005 | 6 | 284 | 1.6 | 6.4 | 0.00 | 0.05 | 0.00 | 57 | 1004.5 |
| 20260505171503 | 7 | 253 | 1.6 | 11.3 | 0.00 | 0.05 | 0.00 | 56 | 1004.4 |
| 20260505170003 | 7 | 307 | 1.6 | 6.4 | 0.00 | 0.05 | 0.00 | 55 | 1004.4 |
| 20260505164501 | 7 | 269 | 3.2 | 14.5 | 0.00 | 0.05 | 0.00 | 56 | 1004.3 |
| 20260505163059 | 7 | 248 | 0.0 | 11.3 | 0.00 | 0.05 | 0.00 | 54 | 1004.1 |
| 20260505161601 | 8 | 327 | 3.2 | 19.3 | 0.00 | 0.05 | 0.00 | 50 | 1004.1 |
| 20260505153109 | 8 | 322 | 3.2 | 16.1 | 0.00 | 0.05 | 0.00 | 50 | 1003.8 |
| 20260505151554 | 8 | 289 | 1.6 | 12.9 | 0.00 | 0.05 | 0.00 | 50 | 1003.8 |
| 20260505124548 | 9 | 328 | 1.6 | 12.9 | 0.00 | 0.05 | 0.00 | 49 | 1002.9 |
| 20260505123044 | 8 | 290 | 4.8 | 16.1 | 0.00 | 0.05 | 0.00 | 51 | 1002.8 |
| 20260505121540 | 9 | 265 | 0.0 | 16.1 | 0.00 | 0.05 | 0.00 | 51 | 1002.8 |
| 20260505120049 | 9 | 323 | 4.8 | 17.7 | 0.00 | 0.05 | 0.00 | 48 | 1002.6 |
| 20260505114538 | 9 | 316 | 6.4 | 19.3 | 0.00 | 0.05 | 0.00 | 46 | 1002.5 |
| 20260505113038 | 8 | 334 | 4.8 | 12.9 | 0.00 | 0.05 | 0.00 | 49 | 1002.4 |
| 20260505111535 | 8 | 263 | 4.8 | 16.1 | 0.00 | 0.05 | 0.00 | 47 | 1002.2 |
| 20260505101527 | 9 | 327 | 4.8 | 12.9 | 0.00 | 0.05 | 0.00 | 55 | 1001.5 |